Location: ????????
(38.4362°N, 22.8767°E)
Time: 08:45:17
(UTC+00:00)

Cosmos 2266 Rocket - Visible Passes

Search period start: 24 July 2024 00:00
Search period end: 03 August 2024 00:00
Orbit: 933 x 1007 km, 82.9° (Epoch: 23 July)

Date Brightness Start Highest point End Pass type
(mag) Time Alt. Az. Time Alt. Az. Time Alt. Az.
24 Jul 4.5 01:59:25 10° N 02:05:25 60° E 02:11:20 10° SSE visible
25 Jul 6.6 00:40:15 10° NE 00:43:21 14° ENE 00:46:26 10° E visible
25 Jul 3.9 02:23:15 10° N 02:29:19 76° W 02:35:18 10° S visible
26 Jul 5.9 01:02:41 10° NNE 01:07:40 26° ENE 01:12:35 10° SE visible
26 Jul 4.4 02:47:26 10° NNW 02:53:03 41° W 02:58:36 10° SSW visible
27 Jul 4.9 01:25:59 10° N 01:31:47 46° ENE 01:37:32 10° SSE visible
28 Jul 6.7 00:08:20 10° NE 00:09:32 11° ENE 00:10:45 10° ENE visible
28 Jul 3.9 01:49:40 10° N 01:55:45 85° E 02:01:46 10° S visible
29 Jul 6.1 00:29:34 10° NNE 00:33:55 20° ENE 00:38:16 10° ESE visible
29 Jul 4.1 02:13:41 10° NNW 02:19:33 53° W 02:25:21 10° SSW visible
30 Jul 5.2 00:52:35 10° N 00:58:08 36° ENE 01:03:36 10° SE visible
30 Jul 4.8 02:38:07 10° NNW 02:43:11 29° W 02:48:16 10° SW visible
31 Jul 4.2 01:16:07 10° N 01:22:09 66° E 01:27:59 11° SSE visible
31 Jul 5.5 03:03:19 10° NW 03:06:41 16° W 03:10:05 10° WSW visible
31 Jul 6.4 23:56:39 10° NNE 00:00:09 16° ENE 00:03:39 10° ESE visible
01 Aug 3.8 01:40:01 10° NNW 01:46:01 69° W 01:50:46 17° S visible
02 Aug 5.6 00:19:17 10° NNE 00:24:26 28° ENE 00:29:08 12° SE visible
02 Aug 4.5 02:04:15 10° NNW 02:09:43 37° W 02:13:38 18° SW visible
